Location: Foulognes
(49.1413°N, 0.8183°W)
Time: 00:24:00
(UTC+00:00)

H-2A R/B - Pass Details

Date: 21 October 2019
Orbit: 733 x 837 km, 98.3° (Epoch: 20 November)

Event Time Altitude Azimuth Distance (km) Brightness Sun altitude
Exits shadow 18:42:58 26° 73° (ENE) 1,569 3.1 -17.1°
Maximum altitude 18:43:37 27° 61° (ENE) 1,547 3.1 -17.2°
Drops below altitude 10° 18:48:06 10° 5° (N) 2,456 4.6 -18.0°
Sets 18:50:48 0° 354° (N) 3,400 5.5 -18.4°
